Change the Weather History Date:

Wednesday, March 6, 2013

  Actual Average Record
Temperature  
Mean Temperature 60 °F 60 °F  
Max Temperature 68 °F 69 °F 88 °F (1979)
Min Temperature 51 °F 50 °F 43 °F (2000)
Degree Days  
Heating Degree Days 5 6  
Month to date heating degree days 12 36  
Since 1 July heating degree days 683 958  
Cooling Degree Days 0 1  
Month to date cooling degree days 11 3  
Year to date cooling degree days 23 12  
Growing Degree Days 10 (Base 50)    
Moisture  
Dew Point 43 °F    
Average Humidity 54    
Maximum Humidity 67    
Minimum Humidity 40    
Precipitation  
Precipitation 0.00 in 0.13 in 0.33 in (2001)
Month to date precipitation 0.00 0.89  
Year to date precipitation 1.40 7.17  
Since 1 July precipitation 4.71  
Snow  
Snow 0.00 in - - ()
Month to date snowfall 0.0  
Year to date snowfall 0.0  
Since 1 July snowfall 0.0  
Snow Depth 0.00 in    
Sea Level Pressure  
Sea Level Pressure 30.08 in    
Wind  
Wind Speed 3 mph (WSW)    
Max Wind Speed 12 mph    
Max Gust Speed 17 mph    
Visibility 10 miles    
Events Rain    
T = Trace of Precipitation, MM = Missing Value Source: NWS Daily Summary

Daily Weather History Graph

Daily Weather History Graph

Search for Another Location

Airport or City:

Trip Planner

Search our weather history database for the weather conditions in past years. The results will help you decide how hot, cold, wet, or windy it might be!

Date:

Astronomy

Mar. 06, 2013 Rise Set
Actual Time 6:13 AM PST 5:52 PM PST
Civil Twilight 5:48 AM PST 6:17 PM PST
Nautical Twilight 5:19 AM PST 6:46 PM PST
Astronomical Twilight 4:50 AM PST 7:15 PM PST
Moon 2:15 AM PST (3/6) 12:50 PM PST (3/6)
Length of Visible Light 12h 28m
Length of Day
11h 39m
Waning Crescent, 29% of the Moon is Illuminated
Mar 6
Waning Crescent
Mar 11
New
Mar 19
First Quarter
Mar 27
Full
Apr 2
Last Quarter

Hourly Weather History & Observations

Time (PST) Temp. Dew Point Humidity Pressure Visibility Wind Dir Wind Speed Gust Speed Precip Events Conditions
12:23 AM 57.2 °F 44.6 °F 63% 30.13 in 10.0 mi WNW 6.9 mph - N/A   Overcast
12:53 AM 55.9 °F 44.1 °F 64% 30.12 in 10.0 mi West 3.5 mph - N/A   Overcast
1:53 AM 55.9 °F 42.1 °F 60% 30.12 in 10.0 mi West 3.5 mph - N/A   Overcast
2:05 AM 55.4 °F 42.8 °F 63% 30.12 in 10.0 mi Calm Calm - N/A   Overcast
2:34 AM 55.4 °F 42.8 °F 63% 30.11 in 10.0 mi Calm Calm - N/A   Overcast
2:41 AM 55.4 °F 42.8 °F 63% 30.11 in 10.0 mi SW 4.6 mph - N/A   Overcast
2:53 AM 55.9 °F 41.0 °F 57% 30.11 in 10.0 mi Variable 4.6 mph - N/A   Overcast
4:53 AM 55.0 °F 42.1 °F 62% 30.12 in 10.0 mi Calm Calm - N/A   Overcast
5:53 AM 53.1 °F 41.0 °F 64% 30.13 in 10.0 mi Calm Calm - N/A   Scattered Clouds
6:53 AM 54.0 °F 42.1 °F 64% 30.13 in 10.0 mi Calm Calm - N/A   Clear
7:53 AM 57.0 °F 42.1 °F 57% 30.15 in 10.0 mi Calm Calm - N/A   Clear
8:53 AM 59.0 °F 42.1 °F 53% 30.15 in 10.0 mi Calm Calm - N/A   Scattered Clouds
9:53 AM 60.1 °F 41.0 °F 49% 30.14 in 10.0 mi SE 3.5 mph - N/A   Scattered Clouds
10:53 AM 64.9 °F 41.0 °F 42% 30.14 in 10.0 mi East 4.6 mph - N/A   Partly Cloudy
11:53 AM 64.9 °F 39.9 °F 40% 30.11 in 10.0 mi Variable 4.6 mph - N/A   Partly Cloudy
12:53 PM 66.0 °F 41.0 °F 40% 30.08 in 10.0 mi West 5.8 mph - N/A   Partly Cloudy
1:53 PM 66.9 °F 41.0 °F 39% 30.06 in 10.0 mi Variable 6.9 mph - N/A   Clear
2:53 PM 66.0 °F 41.0 °F 40% 30.04 in 10.0 mi SSW 9.2 mph - N/A   Mostly Cloudy
3:53 PM 66.0 °F 42.1 °F 42% 30.03 in 10.0 mi Variable 4.6 mph - N/A   Partly Cloudy
4:53 PM 64.0 °F 43.0 °F 46% 30.03 in 10.0 mi Variable 5.8 mph - N/A   Scattered Clouds
5:53 PM 62.1 °F 44.1 °F 52% 30.03 in 10.0 mi Variable 5.8 mph - N/A   Overcast
6:53 PM 60.1 °F 45.0 °F 57% 30.04 in 10.0 mi NW 4.6 mph - N/A   Overcast
7:53 PM 59.0 °F 46.9 °F 64% 30.03 in 10.0 mi Variable 3.5 mph - 0.00 in Rain Light Rain
8:53 PM 59.0 °F 48.0 °F 67% 30.03 in 10.0 mi Calm Calm - 0.00 in   Overcast
9:44 PM 59.0 °F 48.2 °F 67% 30.03 in 10.0 mi West 4.6 mph - N/A   Overcast
9:53 PM 59.0 °F 48.0 °F 67% 30.03 in 10.0 mi SW 5.8 mph - N/A   Overcast
10:53 PM 57.9 °F 48.9 °F 72% 30.02 in 10.0 mi Calm Calm - 0.00 in   Overcast
11:53 PM 57.9 °F 48.9 °F 72% 30.01 in 10.0 mi Calm Calm - N/A   Overcast